Время (UTC), дата Ветер
(°,м/с) 
Видим.   Явления Облачность Т
(°С)
Тd
(°С)
f(%) Тe
(°С)
Pmin
(гПа)
dP
(гПа)
Po
(мм)
O2
(г/м3)
Тmin Tmax R s Состояние
почвы
00 01.07.13 330 (СЗ) 10 км    4/0 верхняя 
[Ci fib]
+22.5 +14.8 62 +31  1002.7  -0.4  746  275           
03 01.07.13 060 (СВ) 10 км    5/0 средняя, верхняя 
[Ac trans|Ci fib]
+23.1 +15.8 63 +33  1002.3  -0.4  745  274  +21.3         
06 01.07.13 070 (В) 10 км    5/0 средняя, верхняя 
[Ac trans|Ci fib]
+29 +15.6 44 +39  1002  745  268           
09 01.07.13 100 (В) 10 км    8/3 1000 м кучево-дожд., средняя, верхняя 
[Cb calv|Ac trans|Ci fib]
+31.3 +12.7 32 +36  1001.9  -0.1  745  267           
12 01.07.13 090 (В) 10 км    8/1 1500 м средняя, верхняя 
[Cu med, cong|Ac trans|Ci fib]
+33.6 +10.1 24 +35  1000.1  -1.5  744  265           
15 01.07.13 270 (З) 5{14}  10 км  гроза, ливневой дождь  9/5 1200 м кучево-дожд., средняя 
[Cb cap|Ac trans]
+24.7 +17.3 63 +38  1000.7  0.5  744  271    +34.1     
18 01.07.13 250 (З) 7-10{14}  3000 м  гроза, ливневой дождь  10/9 300 м кучево-дожд., средняя 
[Cb cap|Ac und]
+19.6 +17.5 88 +33  1005.8  4.8  748  277           
21 01.07.13 100 (В) 2{10}  10 км  в посл. час ливневой дождь{гроза}  10/8 300 м кучево-дожд., средняя 
[Cb calv|Ac und]
+18.9 +17.2 90 +33  1004.6  -1.1  747  278           
00 02.07.13 100 (В) 5{10}  4000 м  дымка{гроза, ливн. осадки}  10/8 150 м кучево-дожд., средняя 
[Cb calv|Ac und]
+19.1 +17.6 91 +33  1005.2  0.6  747  277           
03 02.07.13 090 (В) 4000 м  дымка  10/8 210 м кучево-дожд., средняя 
[Cb calv|Ac und]
+19.4 +17.8 90 +34  1005.6  0.4  748  277  +18.7    14     
06 02.07.13 070 (В) 10 км    9/5 240 м кучево-дожд., средняя 
[Cb calv|Ac trans]
+21.4 +18.3 82 +36  1006.5  0.8  748  275           
09 02.07.13 090 (В) 8-11{11}  10 км    9/6 600 м кучево-дожд., средняя 
[Cb calv|Ac trans]
+24.4 +18 68 +39  1006.9  0.5  749  273           
12 02.07.13 080 (В) 11-16{12}  10 км  в посл. час ливневой дождь  9/6 570 м кучево-дожд., средняя 
[Cb calv|Ac trans]
+20.1 +16.4 79 +31  1007.8  0.4  749  278           
15 02.07.13 090 (В) 6{15}  10 км  {ливн. осадки}  10/8 450 м кучево-дожд., средняя 
[Cb calv|Ac und]
+20.1 +17.1 83 +33  1007.9  0.4  749  277    +24.8     
18 02.07.13 070 (В) 5{15}  10 км  {ливн. осадки}  9/1 1000 м кучево-дожд., средняя 
[Cb calv|Ac trans]
+19.6 +16.7 83 +32  1009.7  1.7  751  279           
21 02.07.13 080 (В) 10 км  {ливн. осадки}  9/5 480 м кучево-дожд., средняя 
[Cb calv|Ac trans]
+18.4 +15.8 85 +29  1009.9  0.2  751  280           
00 03.07.13 080 (В) 10 км  {ливн. осадки}  8/1 1000 м кучево-дожд., средняя 
[Cb calv|Ac trans]
+18 +15 83 +27  1010.4  0.4  751  281           
03 03.07.13 080 (В) 5{10}  10 км  слаб. дождь  9/8 600 м средняя 
[Sc|Ac trans]
+17.6 +14.3 81 +25  1011.5  0.9  752  282  +17.1    0.4     
06 03.07.13 070 (В) 5{10}  10 км  слаб. ливневой дождь  9/5 1000 м кучево-дожд., средняя 
[Cb calv|Ac trans]
+20.2 +15.8 76 +30  1012.1  0.7  753  279           
09 03.07.13 100 (В) 10 км  {ливн. осадки}  8/3 1000 м кучево-дожд., средняя 
[Cb calv|Ac trans]
+26.1 +11.6 40 +29  1012.2  0.3  753  275           
12 03.07.13 110 (В) 5{10}  10 км  {ливн. осадки}  4/3 1500 м средняя 
[Cu hum|Ac trans]
+29.3 +7.7 26 +29  1011.3  -0.6  752  272           
15 03.07.13 100 (В) 10 км    3/0 средняя 
[Ac trans]
+29.1 +7.9 26 +29  1011.2  -0.1  752  273    +29.9  0.0     
18 03.07.13 330 (СЗ) 10 км    4/0 средняя 
[Ac trans]
+22.3 +11.3 50 +25  1012.2  0.8  753  278           
21 03.07.13 290 (З) 10 км    ясно 
+20.9 +12.6 59 +26  1012.7  0.4  753  279           
00 04.07.13 060 (СВ) 10 км    ясно 
+18.4 +10.8 61 +21  1012.7  -0.1  753  282           
03 04.07.13 060 (СВ) 10 км    1/0 средняя 
[Ac trans]
+20.5 +10.7 53 +22  1013.1  0.5  753  280  +17.9         
06 04.07.13 080 (В) 10 км    1/0 средняя 
[Ac trans]
+27.6 +10.5 34 +29  1013.5  0.5  754  274           
09 04.07.13 090 (В) 10 км    3/3 1500 м 
[Cu med, cong]
+30.7 +8 24 +31  1013.2  0.1  754  272           
12 04.07.13 090 (В) 10 км    5/5 1500 м 
[Cu med, cong]
+32.3 +7.9 22 +32  1012.6  -0.4  753  270           
15 04.07.13 080 (В) 10 км    6/4 1500 м кучево-дожд., средняя 
[Cb calv|Ac trans]
+30.6 +8.7 26 +31  1012.3  -0.2  753  271    +32.4       
18 04.07.13 340 (С) 10 км    6/4 1500 м кучево-дожд., средняя 
[Cb calv|Ac trans]
+26.4 +10.2 36 +28  1013.1  0.6  753  275           
21 04.07.13 070 (В) 10 км    4/0 средняя, верхняя 
[Ac trans|Ci fib]
+22.2 +12.1 53 +26  1013.3  0.1  754  279           
00 05.07.13 070 (В) 10 км    8/0 средняя 
[Ac trans]
+22.9 +10.2 45 +24  1013.2  -0.1  753  278           
03 05.07.13 050 (СВ) 10 км    9/3 1000 м кучево-дожд., средняя, верхняя 
[Cb calv|Ac trans|Ci fib]
+22.5 +12.3 52 +27  1014.2  754  278  +21.9         
06 05.07.13 070 (В) 10 км  {ливн. осадки}  6/0 средняя, верхняя 
[Ac trans|Ci fib]
+27.5 +12.8 40 +32  1014.3  0.1  754  274  +21.9         
09 05.07.13 070 (В) 10 км    4/3 1500 м средняя 
[Cu med, cong|Ac trans]
+30.8 +10 28 +32  1014.1  -0.1  754  271           
12 05.07.13 060 (СВ) 10 км    6/6 1500 м 
[Cu med, cong]
+32.2 +10.1 26 +33  1013.5  -0.5  754  270           
15 05.07.13 060 (СВ) 10 км    5/3 1500 м средняя 
[Cu med, cong|Ac trans]
+30.6 +7.9 24 +31  1013  -0.5  753  272    +32.2  0.0     
18 05.07.13 010 (С) 10 км    3/0 средняя 
[Ac trans]
+26.2 +6.9 29 +26  1013.8  0.6  754  276           
21 05.07.13 050 (СВ) 10 км    3/0 средняя 
[Ac trans]
+22.9 +8.6 40 +23  1014  754  279           
00 06.07.13 050 (СВ) 10 км    3/0 средняя 
[Ac trans]
+22.9 +6.6 35 +23  1014.2  0.2  754  279           
03 06.07.13 040 (СВ) 10 км    6/3 1500 м кучево-дожд., средняя 
[Cb calv|Ac trans]
+22.1 +7.5 39 +22  1014.6  0.3  754  280  +20.9         
06 06.07.13 060 (СВ) 10 км    4/1 1500 м средняя 
[Cu med, cong|Ac trans]
+27.4 +8.8 31 +27  1014.9  0.5  755  275           
09 06.07.13 070 (В) 7-10{11}  10 км    3/3 1500 м 
[Cu med, cong]
+31.1 +7.4 23 +31  1014.7  -0.1  755  272           
12 06.07.13 080 (В) 5{11}  10 км    5/5 1500 м 
[Cu med, cong]
+31.8 +6.6 21 +32  1014  -0.6  754  271           
15 06.07.13 050 (СВ) 10 км    3/3 1500 м 
[Cu med, cong]
+31.8 +5.7 19 +32  1013.7  -0.4  754  271    +32.9       
18 06.07.13 040 (СВ) 10 км    3/0 средняя 
[Ac trans]
+27.5 +7.5 28 +28  1014.3  0.4  754  275           
21 06.07.13 020 (С) 10 км    4/0 средняя 
[Ac trans]
+24.8 +8.1 34 +25  1014.9  0.4  755  277           
00 07.07.13 020 (С) 10 км    ясно 
+23.9 +8.5 37 +24  1015.1  0.2  755  278           
03 07.07.13 070 (В) 10 км    3/0 средняя 
[Ac trans]
+23.2 +10.3 44 +25  1015.9  0.8  755  279  +21.2         
06 07.07.13 060 (СВ) 10 км    ясно 
+28.2 +11 34 +31  1015.8  755  274           
09 07.07.13 080 (В) 6-10{10}  10 км    3/3 1500 м 
[Cu med, cong]
+32.1 +12.1 29 +36  1015.8  756  270           
12 07.07.13 060 (СВ) 4{10}  10 км    8/5 1500 м кучево-дожд., средняя 
[Cb calv|Ac trans]
+32.2 +9.8 25 +33  1015.6  -0.1  755  271           
15 07.07.13 210 (ЮЗ) 10 км    4/1 1500 м средняя, верхняя 
[Cu med, cong|Ac trans|Ci fib]
+32.7 +7.4 21 +33  1014.9  -0.6  755  270    +34.2       
18 07.07.13 тихо ()   10 км    3/0 средняя 
[Ac trans]
+25.6 +10.6 39 +27  1015.8  0.6  755  276           
21 07.07.13 350 (С) 10 км    ясно 
+26.4 +10.4 37 +28  1015.8  0.1  755  276           
00 08.07.13 020 (С) 10 км    ясно 
+26 +8.8 34 +26  1015.5  -0.4  755  276           
03 08.07.13 060 (СВ) 10 км    ясно 
+23.6 +10.9 45 +26  1015.9  0.4  755  278  +20.8         
06 08.07.13 120 (ЮВ) 10 км    ясно 
+30.6 +8.4 25 +31  1016  0.3  756  272           
09 08.07.13 210 (ЮЗ) 10 км    4/4 1500 м кучево-дожд. 
[Cb calv]
+34.1 +7.7 20 +34  1015.5  -0.4  755  269           
12 08.07.13 190 (Ю) 10 км    6/5 1500 м верхняя 
[Cu med, cong|Ci fib]
+35.3 +6.8 17 +35  1014.1  -1.3  754  268           
15 08.07.13 280 (З) 10 км    6/3 1500 м средняя, верхняя 
[Cu med, cong|Ac trans|Ci fib]
+33.9 +7.6 20 +34  1012.9  -1.1  753  269    +36       
18 08.07.13 330 (СЗ) 10 км    4/3 1500 м кучево-дожд., средняя 
[Cb calv|Ac trans]
+28.7 +9.5 30 +29  1013.7  0.5  754  273           
21 08.07.13 350 (С) 10 км    4/1 1500 м кучево-дожд., средняя 
[Cb calv|Ac trans]
+27.8 +8.1 29 +28  1013.2  -0.5  754  274           
00 09.07.13 360 (С) 10 км    3/0 средняя 
[Ac trans]
+24.9 +12.2 45 +29  1013.2  753  276           
03 09.07.13 330 (СЗ) 10 км    1/0 верхняя 
[Ci fib]
+22.7 +12.8 54 +28  1013.1  -0.1  753  278  +22.7         
06 09.07.13 010 (С) 10 км    3/0 средняя 
[Ac trans]
+27.5 +14.3 44 +35  1013.4  0.3  754  273  +22.7         
09 09.07.13 320 (СЗ) 10 км    3/3 1000 м 
[Cu med, cong]
+30.7 +11.2 30 +33  1012.6  -0.7  753  271           
12 09.07.13 320 (СЗ) 10 км    4/4 1000 м 
[Cu med, cong]
+31.3 +10.6 28 +33  1011.2  -1.4  752  270           
15 09.07.13 300 (СЗ) 8-11{11}  10 км    1/0 средняя 
[Ac trans]
+30 +7.8 25 +30  1010.4  -0.8  752  272    +31.5       
18 09.07.13 350 (С) 4{11}  10 км    3/0 верхняя 
[Ci fib]
+25.6 +8.9 35 +26  1011.4  0.8  752  276           
21 09.07.13 340 (С) 10 км    3/0 верхняя 
[Ci fib]
+21.9 +10.1 47 +23  1011.3  752  279           
00 10.07.13 340 (С) 10 км    ясно 
+20 +10.8 55 +22  1011.1  -0.3  752  280           
03 10.07.13 310 (СЗ) 10 км    ясно 
+19.9 +11.2 57 +24  1010.9  -0.2  752  280  +19         
06 10.07.13 330 (СЗ) 10 км    ясно 
+24.8 +12.3 46 +29  1010.4  -0.3  751  275           
09 10.07.13 340 (С) 10 км    5/5 1500 м 
[Cu med, cong]
+27.1 +10.3 35 +29  1009.4  -1  751  273           
12 10.07.13 340 (С) 10 км    5/5 1500 м 
[Cu med, cong]
+29.3 +8.8 28 +29  1008.1  -1.2  750  271           
15 10.07.13 340 (С) 10 км    4/4 1500 м 
[Cu med, cong]
+27.9 +8.3 29 +28  1007.7  -0.3  749  273    +30       
18 10.07.13 010 (С) 10 км    3/0 верхняя 
[Ci fib]
+24.9 +8.6 35 +25  1008.4  0.5  750  275           
21 10.07.13 340 (С) 10 км    3/0 средняя 
[Ac trans]
+18.6 +10.8 60 +22  1008.7  0.1  750  281           
00 11.07.13 340 (С) 10 км    3/0 средняя 
[Ac trans]
+17.5 +10.5 63 +20  1008.5  -0.2  750  282           
03 11.07.13 тихо ()   10 км    3/0 верхняя 
[Ci fib]
+18.5 +12.2 67 +23  1008.6  750  281  +16.9         
06 11.07.13 320 (СЗ) 10 км    ясно 
+26.8 +11.6 39 +30  1008.8  0.4  750  273           
09 11.07.13 360 (С) 10 км    5/5 1500 м 
[Cu hum]
+29.5 +9.1 28 +30  1007.9  -0.8  750  271           
12 11.07.13 050 (СВ) 10 км    6/6 1500 м 
[Cu med, cong]
+29.4 +8.2 26 +29  1007.4  -0.5  749  271           
15 11.07.13 030 (СВ) 10 км    3/1 1500 м средняя 
[Cu med, cong|Ac trans]
+29.8 +8.5 26 +30  1007  -0.4  749  271    +31.4       
18 11.07.13 290 (З) 10 км    3/0 средняя 
[Ac trans]
+26.3 +13.4 45 +32  1008.3  1.1  750  273           
21 11.07.13 340 (С) 10 км    8/0 средняя 
[Ac trans]
+24.5 +15.1 56 +33  1008.8  0.4  750  274           
00 12.07.13 060 (СВ) 10 км    5/0 средняя 
[Ac trans]
+21.5 +12.5 57 +26  1008.9  750  278           
03 12.07.13 240 (ЮЗ) 10 км    3/0 средняя 
[Ac trans]
+21.1 +13.7 63 +28  1009.5  0.5  751  278  +19.6         
06 12.07.13 190 (Ю) 10 км    ясно 
+27.7 +11.4 36 +31  1009.9  0.5  751  273           
09 12.07.13 250 (З) 10 км    3/3 1500 м 
[Cu med, cong]
+30.7 +11 30 +33  1009.6  -0.1  751  270           
12 12.07.13 200 (Ю) 10 км    5/5 1500 м 
[Cu med, cong]
+32.1 +10 26 +33  1009  -0.3  751  269           
15 12.07.13 220 (ЮЗ) 2{14}  10 км  гроза, ливневой дождь  9/6 1500 м кучево-дожд., средняя 
[Cb cap|Ac trans]
+27.2 +17 54 +39  1009.4  0.2  751  271    +33.2     
18 12.07.13 270 (З) 2{14}  10 км  {гроза, ливн. осадки}  9/1 1000 м кучево-дожд., средняя, верхняя 
[Cb calv|Ac trans|Ci fib]
+27.3 +17.4 55 +40  1009.8  0.3  751  271           
21 12.07.13 320 (СЗ) 10 км    6/1 1000 м кучево-дожд., средняя, верхняя 
[Cb calv|Ac trans|Ci fib]
+25.1 +15.2 54 +34  1010.3  0.4  751  274           
00 13.07.13 100 (В) 10 км    6/0 средняя, верхняя 
[Ac trans|Ci fib]
+22.1 +14.4 62 +30  1010.4  751  277           
03 13.07.13 100 (В) 10 км    3/0 верхняя 
[Ci fib]
+21 +13.1 61 +27  1010.9  0.3  752  279  +19.2    0.0     
06 13.07.13 100 (В) 10 км    ясно 
+26.1 +15 50 +35  1010.8  0.1  752  273           
09 13.07.13 200 (Ю) 10 км    3/3 1000 м 
[Cu med, cong]
+32.3 +11.1 27 +35  1010.1  -0.4  751  269           
12 13.07.13 180 (Ю) 10 км    4/4 1500 м кучево-дожд. 
[Cb calv]
+33.3 +6 18 +33  1009.2  -0.9  751  269           
15 13.07.13 250 (З) 10 км    3/1 1500 м кучево-дожд., верхняя 
[Cb calv|Ci fib]
+32.2 +12.1 29 +36  1008.8  -0.4  750  268    +34       
18 13.07.13 270 (З) 10 км    4/1 1500 м кучево-дожд., верхняя 
[Cb calv|Ci fib]
+27.5 +13.8 43 +34  1009.6  0.6  751  272           
21 13.07.13 320 (СЗ) 10 км    4/0 верхняя 
[Ci fib]
+25.5 +13.5 47 +32  1009.4  751  274           
00 14.07.13 тихо ()   10 км    5/0 средняя, верхняя 
[Ac trans|Ci fib]
+22 +14.2 61 +29  1009.7  0.2  751  277           
03 14.07.13 110 (В) 4000 м  дымка  5/0 верхняя 
[Ci fib]
+20.7 +17.1 80 +33  1009.7  751  277  +18.8         
06 14.07.13 110 (В) 10 км    3/0 верхняя 
[Ci fib]
+27 +16.2 52 +38  1009.8  0.2  751  272           
09 14.07.13 180 (Ю) 10 км    3/0 верхняя 
[Ci fib]
+32 +12.4 30 +36  1009  -0.6  751  268           
12 14.07.13 230 (ЮЗ) 10 км    6/6 1500 м кучево-дожд. 
[Cb calv]
+34 +9.6 22 +35  1007.6  -1.3  749  267           
15 14.07.13 240 (ЮЗ) 10 км    6/5 1500 м кучево-дожд., средняя, верхняя 
[Cb calv|Ac trans|Ci fib]
+31.5 +11 28 +34  1007.3  -0.3  749  269    +34.1       
18 14.07.13 300 (СЗ) 10 км  гроза без осадков  9/5 1500 м кучево-дожд., средняя 
[Cb cap|Ac trans]
+27.9 +13.6 41 +34  1008.4  0.8  750  272           
21 14.07.13 090 (В) 4{14}  10 км  гроза без осадков{ливн. осадки}  9/4 1000 м кучево-дожд., средняя 
[Cb cap|Ac trans]
+20.5 +16.6 78 +32  1009.4  0.8  751  278           
00 15.07.13 080 (В) 3{14}  10 км  гроза без осадков{ливн. осадки}  9/5 1000 м кучево-дожд., средняя 
[Cb cap|Ac trans]
+19.6 +17.6 88 +33  1009.4  751  278           
03 15.07.13 190 (Ю) 10 км  {гроза, ливн. осадки}  8/3 1000 м кучево-дожд., средняя 
[Cb calv|Ac trans]
+20.3 +16.7 80 +32  1009.6  0.1  751  278  +19.5    16     
06 15.07.13 190 (Ю) 10 км  {гроза, ливн. осадки}  3/0 средняя, верхняя 
[Ac trans|Ci fib]
+25.7 +19.5 69 +43  1009.7  0.3  751  272           
09 15.07.13 260 (З) 10 км    6/5 1200 м кучево-дожд., средняя 
[Cb calv|Ac trans]
+28.7 +16.8 49 +41  1009  -0.6  750  270           
12 15.07.13 260 (З) 10 км    5/3 1000 м 
[Cu med, cong]
+30.5 +11.7 31 +34  1008.8  -0.2  750  270           
15 15.07.13 260 (З) 10 км    3/0 средняя, верхняя 
[Ac trans|Ci fib]
+28.7 +10.8 33 +31  1008.7  750  272    +30.8       
18 15.07.13 260 (З) 10 км    6/0 средняя, верхняя 
[Ac trans|Ci fib]
+24.5 +15.7 58 +34  1009.9  751  274           
21 15.07.13 240 (ЮЗ) 10 км    6/0 средняя, верхняя 
[Ac trans|Ci fib]
+21.2 +16 72 +32  1010  751  277           
00 16.07.13 270 (З) 10 км    5/0 средняя 
[Ac trans]
+21 +16.9 77 +33  1010  751  277           
03 16.07.13 270 (З) 10 км    8/0 средняя, верхняя 
[Ac trans|Ci fib]
+22.2 +17.1 73 +35  1010  751  276  +19.9         
06 16.07.13 220 (ЮЗ) 10 км    5/1 1000 м средняя, верхняя 
[Cu hum|Ac trans|Ci fib]
+26.3 +17.6 59 +40  1010.2  0.3  751  272           
09 16.07.13 270 (З) 10 км    5/5 1200 м 
[Cu med, cong]
+28.2 +11.1 35 +31  1009.9  -0.2  751  272           
12 16.07.13 250 (З) 7-10  10 км    5/5 1200 м 
[Cu med, cong]
+30.4 +11.6 31 +34  1009  -1  750  270           
15 16.07.13 250 (З) 3{10}  10 км    4/3 1000 м средняя 
[Cu med, cong|Ac trans]
+29.1 +12.6 36 +34  1008.8  -0.1  750  271    +30.9       
18 16.07.13 270 (З) 4{10}  10 км    1/0 средняя 
[Ac trans]
+25.4 +16.9 59 +37  1010  1.1  751  273           
21 16.07.13 350 (С) 10 км    3/0 средняя 
[Ac trans]
+23.1 +11.1 47 +26  1010.8  0.6  752  277           
00 17.07.13 340 (С) 10 км    4/0 средняя 
[Ac trans]
+20.9 +11.2 54 +24  1011.2  0.2  752  279           
03 17.07.13 340 (С) 10 км    1/0 средняя 
[Ac trans]
+20.4 +12.3 60 +25  1011.9  0.6  752  280  +19.8         
06 17.07.13 360 (С) 10 км    1/0 средняя 
[Ac trans]
+25.9 +13.6 47 +32  1012.2  0.5  753  274           
09 17.07.13 250 (З) 10 км    5/5 1200 м 
[Cu med, cong]
+28 +11.4 36 +31  1011.9  -0.3  753  273           
12 17.07.13 270 (З) 10 км    5/5 1200 м 
[Cu med, cong]
+30.2 +9.6 28 +31  1010.7  -1  752  271           
15 17.07.13 350 (С) 10 км    6/6 1200 м кучево-дожд. 
[Cb calv]
+29 +13.1 38 +35  1010.6  -0.1  752  271    +30.7       
18 17.07.13 280 (З) 10 км  зарница  8/4 1000 м кучево-дожд., средняя 
[Cb cap|Ac trans]
+25.4 +17.5 62 +39  1011.7  752  273           
21 17.07.13 340 (С) 10 км    9/4 1000 м кучево-дожд., средняя 
[Cb calv|Ac trans]
+24.2 +13.1 50 +30  1012.2  0.5  753  276           
00 18.07.13 360 (С) 10 км    9/3 1000 м кучево-дожд. 
[Cb calv]
+23 +11.7 49 +26  1012.1  -0.1  753  278           
03 18.07.13 360 (С) 10 км    9/1 1000 м кучево-дожд., средняя, верхняя 
[Cb calv|Ac trans|Ci fib]
+21.2 +11 52 +24  1012.5  0.3  753  279  +20.5         
06 18.07.13 010 (С) 10 км    ясно 
+25.8 +11.9 42 +29  1012.5  0.2  753  275           
09 18.07.13 310 (СЗ) 10 км    6/6 1500 м 
[Cu med, cong]
+28.9 +9.4 30 +29  1012.1  -0.3  753  273           
12 18.07.13 320 (СЗ) 10 км    6/6 1500 м 
[Cu med, cong]
+30.2 +6.9 23 +30  1011.4  -0.7  752  272           
15 18.07.13 350 (С) 10 км    3/3 1500 м 
[Cu hum]
+29.9 +7.3 24 +30  1010.9  -0.5  752  272    +31.5       
18 18.07.13 350 (С) 10 км    4/0 средняя 
[Ac trans]
+25.4 +9.3 36 +26  1012.2  1.1  753  276           
21 18.07.13 010 (С) 10 км    4/0 средняя 
[Ac trans]
+23.3 +9.7 42 +24  1012.6  0.3  753  278           
00 19.07.13 030 (СВ) 10 км    1/0 средняя 
[Ac trans]
+21.8 +9.5 45 +22  1012.1  -0.6  753  279           
03 19.07.13 030 (СВ) 10 км    4/0 средняя 
[Ac trans]
+21.6 +9.7 47 +22  1012.2  753  279  +20.1         
06 19.07.13 070 (В) 10 км    5/1 1000 м средняя 
[Cu hum|Ac trans]
+25.8 +11 39 +28  1012  753  275           
09 19.07.13 090 (В) 10 км    6/4 1000 м средняя 
[Cu med, cong|Ac trans]
+29.8 +9.6 28 +30  1011.6  -0.4  752  272           
12 19.07.13 090 (В) 5-10{13}  10 км    8/5 1000 м кучево-дожд., средняя 
[Cb calv|Ac trans]
+29.8 +8.9 27 +30  1011.2  -0.4  752  272           
15 19.07.13 110 (В) 4{13}  10 км    4/1 1000 м кучево-дожд., средняя 
[Cb calv|Ac trans]
+27.5 +13.5 42 +34  1011.3  752  273    +31.2       
18 19.07.13 180 (Ю) 2{13}  10 км    ясно 
+23 +15.5 63 +32  1012.1  0.6  753  276           
21 19.07.13 210 (ЮЗ) 10 км    ясно 
+22 +15.3 66 +31  1011.9  -0.1  752  277           
00 20.07.13 180 (Ю) 10 км    3/0 средняя 
[Ac trans]
+20.3 +14.6 70 +28  1011.7  -0.3  752  279           
03 20.07.13 130 (ЮВ) 10 км    3/0 средняя 
[Ac trans]
+20 +15.9 77 +30  1011.8  752  279  +18.3         
06 20.07.13 160 (Ю) 10 км    ясно 
+25.4 +16.2 57 +36  1011.3  -0.3  752  274           
09 20.07.13 210 (ЮЗ) 10 км    4/4 1000 м 
[Cu med, cong]
+29.8 +11.7 33 +33  1010.2  -0.9  751  271           
12 20.07.13 200 (Ю) 10 км    5/5 1000 м кучево-дожд. 
[Cb calv]
+31.1 +10 27 +32  1008.6  -1.6  750  270           
15 20.07.13 270 (З) 10 км    5/3 1000 м кучево-дожд., средняя 
[Cb calv|Ac trans]
+30 +10.4 30 +32  1007.8  -0.8  750  270    +32       
18 20.07.13 280 (З) 10 км    5/0 средняя 
[Ac trans]
+25.8 +15 51 +34  1008.9  750  273           
21 20.07.13 340 (С) 10 км    5/0 средняя 
[Ac trans]
+22.3 +12.2 53 +27  1008.4  -0.5  750  277           
00 21.07.13 090 (В) 10 км    ясно 
+18 +12.1 68 +23  1007.7  -0.9  749  281           
03 21.07.13 320 (СЗ) 10 км    5/1 1000 м кучево-дожд., средняя, верхняя 
[Cb calv|Ac trans|Ci fib]
+19.1 +13.1 68 +26  1008.1  0.4  750  280  +17.4         
06 21.07.13 300 (СЗ) 10 км    4/0 средняя, верхняя 
[Ac trans|Ci fib]
+23.4 +13.2 53 +29  1007.7  -0.2  749  276  +17.4         
09 21.07.13 280 (З) 10 км    9/4 1000 м кучево-дожд., средняя 
[Cb calv|Ac trans]
+24.8 +11.5 43 +28  1007.7  749  275           
12 21.07.13 270 (З) 10 км  слаб. ливневой дождь  9/4 1000 м кучево-дожд., средняя 
[Cb calv|Ac trans]
+20.7 +13.3 63 +27  1007.8  749  278           
15 21.07.13 270 (З) 10 км  {ливн. осадки}  8/3 1000 м кучево-дожд., средняя 
[Cb calv|Ac trans]
+23.9 +12.2 48 +28  1006.8  -1  749  275    +24.9  0.0     
18 21.07.13 300 (СЗ) 10 км  {ливн. осадки}  3/0 средняя 
[Ac trans]
+22 +5.6 34 +22  1007.9  0.8  749  279           
21 21.07.13 320 (СЗ) 10 км    1/0 средняя 
[Ac trans]
+18.7 +6.6 45 +20  1008.7  0.7  750  282           
00 22.07.13 300 (СЗ) 10 км    ясно 
+16.6 +7.4 55 +17  1009.3  0.5  750  284           
03 22.07.13 300 (СЗ) 10 км    1/0 верхняя 
[Ci fib]
+15.2 +8.3 63 +16  1009.5  0.1  751  285  +14.7         
06 22.07.13 270 (З) 10 км    4/3 1500 м средняя 
[Cu hum|Ac trans]
+19.3 +8.7 50 +20  1009.4  751  281           
09 22.07.13 260 (З) 10 км    5/5 1500 м 
[Cu hum]
+22.6 +7.2 37 +23  1008.9  -0.3  750  278           
12 22.07.13 240 (ЮЗ) 7-10{10}  10 км    6/5 1500 м средняя 
[Cu med, cong|Ac trans]
+24.2 +7.9 35 +24  1008.3  -0.7  750  276           
15 22.07.13 260 (З) 10 км    5/3 1500 м средняя 
[Cu med, cong|Ac trans]
+23.1 +9.2 41 +23  1007.9  -0.3  749  277    +24.7       
18 22.07.13 250 (З) 10 км    5/0 средняя 
[Ac trans]
+21.3 +11.4 53 +24  1008.1  0.1  750  278           
21 22.07.13 230 (ЮЗ) 10 км    5/0 средняя 
[Ac trans]
+17.3 +10 62 +19  1008  -0.2  749  282           
00 23.07.13 290 (З) 10 км  слаб. ливневой дождь  9/5 1000 м кучево-дожд., средняя 
[Cb calv|Ac trans]
+17.4 +12.7 74 +23  1007.9  -0.2  749  281           
03 23.07.13 180 (Ю) 10 км  {ливн. осадки}  8/1 1000 м кучево-дожд., средняя 
[Cb calv|Ac trans]
+16.2 +13.6 85 +23  1006.9  -1  749  282  +16.1    0.0     
06 23.07.13 230 (ЮЗ) 10 км  {ливн. осадки}  8/4 1000 м кучево-дожд., средняя 
[Cb calv|Ac trans]
+20.6 +15.1 71 +29  1007.1  0.3  749  277           
09 23.07.13 230 (ЮЗ) 7-10{10}  10 км    8/5 1000 м кучево-дожд., средняя 
[Cb calv|Ac trans]
+24.6 +7.6 34 +25  1006.9  749  276           
12 23.07.13 250 (З) 10-15{15}  10 км    3/3 1000 м 
[Cu hum]
+25.2 +3.7 25 +25  1007.1  749  276           
15 23.07.13 250 (З) 9-12{16}  10 км    4/0 средняя 
[Ac trans]
+24.4 +6.2 31 +24  1007.1  749  276    +25.9       
18 23.07.13 260 (З) 3{16}  10 км    1/0 средняя 
[Ac trans]
+21.5 +10.6 50 +23  1008.3  750  278           
21 23.07.13 240 (ЮЗ) 10 км    4/0 средняя 
[Ac trans]
+18.6 +9.4 55 +19  1008.6  750  281           
00 24.07.13 220 (ЮЗ) 10 км    5/0 средняя 
[Ac trans]
+17.1 +9.7 62 +19  1008.7  750  283           
03 24.07.13 200 (Ю) 10 км    5/1 1500 м кучево-дожд., средняя 
[Cb calv|Ac trans]
+17.1 +10.1 63 +19  1007.8  -0.8  749  282  +15.6         
06 24.07.13 200 (Ю) 10 км  слаб. ливневой дождь  10/5 1000 м кучево-дожд., средняя 
[Cb calv|Ac trans]
+16.7 +13.7 82 +24  1008.2  0.4  750  282           
09 24.07.13 220 (ЮЗ) 9-12{12}  10 км  в посл. час ливневой дождь  9/5 1000 м кучево-дожд., средняя 
[Cb calv|Ac trans]
+23.1 +14.3 58 +31  1007.4  -0.6  749  275           
12 24.07.13 240 (ЮЗ) 10-13{14}  10 км  {ливн. осадки}  6/6 1300 м 
[Cu med, cong]
+24.3 +12.8 49 +29  1007.2  -0.1  749  275           
15 24.07.13 250 (З) 8-12{13}  10 км    5/1 1000 м средняя 
[Cu hum|Ac trans]
+23.6 +13.2 52 +29  1007.9  0.6  749  275    +25.4     
18 24.07.13 250 (З) 6-10{13}  10 км    5/1 1000 м кучево-дожд., средняя 
[Cb calv|Ac trans]
+22.4 +14.8 62 +31  1009  750  276           
21 24.07.13 280 (З) 10 км    6/1 1500 м кучево-дожд., средняя 
[Cb calv|Ac trans]
+21.3 +10.9 51 +24  1009.5  0.5  751  279           
00 25.07.13 300 (СЗ) 10 км    3/0 верхняя 
[Ci fib]
+16.8 +10.9 68 +20  1010.3  0.6  751  283           
03 25.07.13 тихо ()   10 км    1/0 средняя 
[Ac trans]
+16.9 +12 73 +21  1010.7  0.3  751  283  +14         
06 25.07.13 260 (З) 10 км    ясно 
+23 +10.2 44 +24  1010.1  -0.3  751  277           
09 25.07.13 260 (З) 10 км    4/4 1000 м 
[Cu med, cong]
+25.9 +9 34 +26  1009  -0.9  750  275           
12 25.07.13 250 (З) 7-10{10}  10 км    5/3 1000 м средняя 
[Cu med, cong|Ac trans]
+27.7 +7.4 28 +28  1007.7  -1.1  749  273           
15 25.07.13 250 (З) 8-11{11}  10 км    5/3 1000 м кучево-дожд., средняя 
[Cb calv|Ac trans]
+26.2 +12.2 42 +30  1007  -0.9  749  273    +28       
18 25.07.13 250 (З) 6{11}  10 км    6/3 1000 м кучево-дожд., средняя 
[Cb calv|Ac trans]
+22.9 +16.8 68 +35  1007.1  749  275           
21 25.07.13 260 (З) 10 км  гроза, ливневой дождь  9/5 1080 м кучево-дожд., средняя 
[Cb cap|Ac trans]
+22 +15.5 67 +32  1006.1  -1  748  276           
00 26.07.13 270 (З) 10 км  зарница{гроза, ливн. осадки}  9/5 1080 м кучево-дожд., средняя 
[Cb cap|Ac trans]
+20.6 +14.3 67 +28  1005.7  -0.4  748  277           
03 26.07.13 290 (З) 10 км    9/5 1200 м кучево-дожд., средняя 
[Cb calv|Ac trans]
+19.3 +14.4 73 +28  1005.4  -0.4  748  278  +19.3    0.0     
06 26.07.13 300 (СЗ) 10 км    5/1 1500 м средняя 
[Cu med, cong|Ac trans]
+22.4 +14.4 61 +30  1005.2  747  275           
09 26.07.13 280 (З) 10 км    6/6 1500 м 
[Cu med, cong]
+26 +8.9 34 +26  1004.7  -0.3  747  273           
12 26.07.13 310 (СЗ) 7-10{10}  10 км    8/6 1500 м кучево-дожд., верхняя 
[Cb calv|Ci fib]
+28.1 +7.7 28 +28  1004.6  747  272           
15 26.07.13 260 (З) 7-10{11}  10 км    8/6 1500 м кучево-дожд., верхняя 
[Cb calv|Ci fib]
+25 +14.1 51 +32  1005  0.4  747  273    +29.1  0.0     
18 26.07.13 260 (З) 6-10{11}  10 км    4/1 1500 м кучево-дожд., средняя 
[Cb calv|Ac trans]
+22.9 +17.2 70 +36  1005.7  0.6  748  274           
21 26.07.13 330 (СЗ) 2{10}  10 км    3/0 средняя 
[Ac trans]
+20.3 +15.3 73 +30  1006  0.1  748  277           
00 27.07.13 290 (З) 2{10}  10 км    8/0 средняя 
[Ac trans]
+20.5 +12.3 59 +25  1006.2  0.2  748  278           
03 27.07.13 320 (СЗ) 10 км    4/0 средняя 
[Ac trans]
+18.7 +12.5 67 +24  1006.7  0.3  749  280  +17.8         
06 27.07.13 320 (СЗ) 10 км    3/0 средняя, верхняя 
[Ac trans|Ci fib]
+22.8 +12.2 51 +27  1006.9  0.3  749  276           
09 27.07.13 300 (СЗ) 10 км    5/5 1200 м 
[Cu hum]
+27 +10.2 35 +28  1006.6  -0.2  749  273           
12 27.07.13 230 (ЮЗ) 10 км    8/5 1300 м верхняя 
[Cu med, cong|Ci fib]
+27.6 +10.3 34 +29  1006  -0.5  748  272           
15 27.07.13 260 (З) 10 км    9/3 1000 м кучево-дожд., средняя, верхняя 
[Cb calv|Ac trans|Ci fib]
+25.5 +12.5 44 +30  1006.5  0.3  749  273    +28.1       
18 27.07.13 270 (З) 10 км    8/0 средняя, верхняя 
[Ac trans|Ci fib]
+23.3 +16.2 64 +34  1007.4  0.8  749  275           
21 27.07.13 360 (С) 10 км    8/1 1000 м кучево-дожд., средняя 
[Cb calv|Ac trans]
+21.9 +11.8 53 +26  1008.4  0.8  750  278           
00 28.07.13 010 (С) 10 км    5/0 средняя 
[Ac trans]
+19.7 +12.3 62 +25  1008.8  0.3  750  280           
03 28.07.13 340 (С) 10 км    6/0 средняя, верхняя 
[Ac trans|Ci fib]
+17.2 +12.2 72 +21  1010.5  1.5  751  282  +17.2         
06 28.07.13 350 (С) 10 км    5/0 верхняя 
[Ci fib]
+21.8 +11.5 52 +25  1011.1  0.8  752  278  +17.1         
09 28.07.13 340 (С) 10 км    5/5 1300 м 
[Cu med, cong]
+24.8 +9.6 38 +25  1010.4  -0.6  751  276           
12 28.07.13 340 (С) 6{11}  10 км    9/5 1500 м средняя 
[Cu med, cong|Ac trans]
+26.4 +8.3 32 +26  1010.5  0.1  752  275           
15 28.07.13 340 (С) 10 км    8/3 1500 м кучево-дожд., средняя 
[Cb calv|Ac trans]
+25.4 +8.2 33 +25  1010.8  0.3  752  276    +27.2       
18 28.07.13 340 (С) 10 км    8/1 1000 м кучево-дожд., средняя, верхняя 
[Cb calv|Ac trans|Ci fib]
+23 +9.8 43 +24  1012.3  1.4  753  278           
21 28.07.13 350 (С) 10 км  зарница  6/3 1000 м кучево-дожд., верхняя 
[Cb calv|Ci fib]
+19 +9.6 54 +21  1012.8  0.4  753  282           
00 29.07.13 тихо ()   10 км    4/0 верхняя 
[Ci fib]
+15.7 +10.2 70 +17  1012.9  753  285           
03 29.07.13 300 (СЗ) 10 км    5/0 средняя, верхняя 
[Ac trans|Ci fib]
+18.1 +11.1 64 +23  1012.9  753  283  +14.8         
06 29.07.13 310 (СЗ) 10 км    5/0 средняя 
[Ac trans]
+23.3 +10.5 44 +25  1012.4  -0.2  753  278           
09 29.07.13 270 (З) 10 км    8/5 1200 м кучево-дожд., средняя 
[Cb calv|Ac trans]
+26.4 +9.4 34 +27  1011.1  -1.2  752  275           
12 29.07.13 280 (З) 7-10  10 км  гроза, ливневой дождь  9/6 1200 м кучево-дожд., верхняя 
[Cb cap|Ci]
+23.8 +14.4 56 +31  1010.2  -1.1  751  276           
15 29.07.13 260 (З) 10 км  {гроза, ливн. осадки}  8/4 1000 м кучево-дожд., средняя, верхняя 
[Cb calv|Ac trans|Ci fib]
+23.8 +13.2 51 +29  1010.1  751  276    +28.4       
18 29.07.13 270 (З) 3{12}  10 км  в посл. час ливневой дождь{гроза}  8/3 1000 м кучево-дожд., средняя 
[Cb calv|Ac trans]
+22.5 +15.2 63 +31  1010.5  0.4  751  277           
21 29.07.13 040 (СВ) 10 км    6/3 1000 м кучево-дожд., средняя 
[Cb calv|Ac trans]
+18.4 +15.3 82 +28  1010.2  -0.3  751  280           
00 30.07.13 040 (СВ) 10 км    4/0 средняя 
[Ac trans]
+16.9 +12.6 76 +23  1009.7  -0.6  751  282           
03 30.07.13 тихо ()   10 км    4/1 1000 м кучево-дожд., средняя 
[Cb calv|Ac trans]
+17.5 +12.7 73 +22  1009.2  -0.4  750  282  +16.2    0.0     
06 30.07.13 350 (С) 10 км    4/0 средняя, верхняя 
[Ac trans|Ci fib]
+22.8 +11.8 50 +26  1008.6  -0.5  750  277           
09 30.07.13 330 (СЗ) 10 км    9/6 1500 м кучево-дожд., средняя 
[Cb calv|Ac trans]
+25.7 +10.7 39 +28  1007.4  -1  749  274           
12 30.07.13 280 (З) 10 км    9/6 1500 м кучево-дожд., средняя 
[Cb calv|Ac trans]
+26 +9.7 36 +27  1006.2  -1.1  748  274           
15 30.07.13 270 (З) 10 км    8/4 1500 м кучево-дожд., средняя, верхняя 
[Cb calv|Ac trans|Ci]
+25.2 +12.7 46 +30  1005.9  -0.2  748  274    +27.8       
18 30.07.13 350 (С) 10 км    8/0 средняя 
[Ac trans]
+23.2 +10.9 46 +26  1006.5  0.4  748  276           
21 30.07.13 330 (СЗ) 10 км    5/0 средняя 
[Ac trans]
+19.9 +10.4 54 +23  1006.4  -0.1  748  279           
00 31.07.13 290 (З) 10 км    8/1 1500 м кучево-дожд., средняя 
[Cb calv|Ac trans]
+20 +10.9 56 +22  1005.9  -0.3  748  279           
03 31.07.13 300 (СЗ) 10 км  слаб. ливневой дождь  9/4 1500 м кучево-дожд., средняя 
[Cb calv|Ac trans]
+19.2 +12.3 64 +24  1005.6  -0.3  748  279  +19.1    0.0     
06 31.07.13 310 (СЗ) 10 км  слаб. ливневой дождь  9/5 1200 м кучево-дожд., средняя 
[Cb calv|Ac trans]
+18.7 +14.8 78 +27  1005.7  0.1  748  279  +18.7         
09 31.07.13 290 (З) 10 км  {ливн. осадки}  8/6 960 м кучево-дожд., средняя 
[Cb calv|Ac trans]
+24.1 +13.8 53 +31  1004.5  -1  747  274           
12 31.07.13 220 (ЮЗ) 10 км  {ливн. осадки}  9/6 1000 м кучево-дожд., средняя 
[Cb calv|Ac trans]
+25.9 +14.8 50 +34  1003.8  -0.6  747  272           
15 31.07.13 270 (З) 10 км  гроза без осадков  9/6 1200 м кучево-дожд., средняя 
[Cb cap|Ac trans]
+25.6 +14.7 51 +34  1004.1  0.2  747  272    +27.2  0.0     
18 31.07.13 290 (З) 10 км  {гроза}  3/1 1000 м кучево-дожд., средняя 
[Cb calv|Ac trans]
+23 +16 65 +34  1005.6  1.5  748  275           
21 31.07.13 330 (СЗ) 10 км    ясно 
+20.1 +11.6 58 +23  1006.1  0.3  748  279           
00 01.08.13 330 (СЗ) 10 км    ясно 
+18.8 +11.4 62 +22  1006.4  0.1  748  280           
03 01.08.13 320 (СЗ) 10 км    6/0 средняя, верхняя 
[Ac trans|Ci fib]
+18.3 +11.5 64 +22  1007.1  0.7  749  281  +17.7         
Время (UTC), дата Ветер
(°,м/с) 
Видим.   Явления Облачность Т
(°С)
Тd
(°С)
f(%) Тe
(°С)
Pmin
(гПа)
dP
(гПа)
Po
(мм)
O2
(г/м3)
Тmin Tmax R s Состояние
почвы